Change the Weather History Date:

Tuesday, March 19, 2013

  Actual Average Record
Temperature  
Mean Temperature 29 °F 33 °F  
Max Temperature 33 °F 43 °F 78 °F (2012)
Min Temperature 25 °F 22 °F -6 °F (1967)
Degree Days  
Heating Degree Days 36 32  
Month to date heating degree days 668 669  
Since 1 July heating degree days 5607 6049  
Cooling Degree Days 0 0  
Month to date cooling degree days 0 0  
Year to date cooling degree days 0 0  
Moisture  
Dew Point 26 °F    
Average Humidity 84    
Maximum Humidity 92    
Minimum Humidity 75    
Precipitation  
Precipitation 0.25 in 0.12 in 1.27 in (2008)
Month to date precipitation 1.67 1.75  
Year to date precipitation 5.30 7.35  
Sea Level Pressure  
Sea Level Pressure 29.77 in    
Wind  
Wind Speed 9 mph (NE)    
Max Wind Speed 22 mph    
Max Gust Speed 33 mph    
Visibility 4 miles    
Events Fog , Snow    
T = Trace of Precipitation, MM = Missing Value Source: NWS Daily Summary

Daily Weather History Graph

Daily Weather History Graph

Search for Another Location

Airport or City:

Trip Planner

Search our weather history database for the weather conditions in past years. The results will help you decide how hot, cold, wet, or windy it might be!

Date:

Astronomy

Mar. 19, 2013 Rise Set
Actual Time 6:57 AM EDT 7:04 PM EDT
Civil Twilight 6:29 AM EDT 7:32 PM EDT
Nautical Twilight 5:57 AM EDT 8:05 PM EDT
Astronomical Twilight 5:23 AM EDT 8:39 PM EDT
Moon 11:39 AM EDT (3/19) 1:56 AM EDT (3/19)
Length of Visible Light 13h 02m
Length of Day
12h 06m
Waxing Crescent, 49% of the Moon is Illuminated
Mar 19
Waxing Crescent
Mar 19
First Quarter
Mar 27
Full
Apr 3
Last Quarter
Apr 10
New

Hourly Weather History & Observations

Time (EDT) Temp. Windchill Dew Point Humidity Pressure Visibility Wind Dir Wind Speed Gust Speed Precip Events Conditions
12:17 AM 24.8 °F 16.9 °F 21.2 °F 86% 30.02 in 0.8 mi ENE 6.9 mph - 0.02 in Snow Light Snow
12:33 AM 24.8 °F 17.9 °F 21.2 °F 86% 30.01 in 1.2 mi ENE 5.8 mph - 0.04 in Snow Light Snow
12:45 AM 24.8 °F 19.1 °F 21.2 °F 86% 30.01 in 1.8 mi East 4.6 mph - 0.04 in Snow Light Snow
12:54 AM 25.0 °F 15.5 °F 21.9 °F 88% 30.04 in 2.0 mi East 9.2 mph 16.1 mph 0.04 in Snow Light Snow
1:13 AM 24.8 °F 15.3 °F 21.2 °F 86% 29.99 in 2.5 mi East 9.2 mph 16.1 mph 0.01 in Snow Light Snow
1:21 AM 24.8 °F 15.3 °F 21.2 °F 86% 29.99 in 3.0 mi East 9.2 mph 17.3 mph 0.01 in Snow Light Snow
1:49 AM 24.8 °F 17.9 °F 21.2 °F 86% 29.96 in 2.5 mi East 5.8 mph - 0.01 in Snow Light Snow
1:54 AM 25.0 °F 15.5 °F 21.9 °F 88% 30.00 in 2.5 mi East 9.2 mph - 0.01 in Snow Light Snow
2:07 AM 24.8 °F 15.3 °F 21.2 °F 86% 29.95 in 3.0 mi East 9.2 mph - 0.00 in Snow Light Snow
2:16 AM 24.8 °F 15.3 °F 21.2 °F 86% 29.95 in 5.0 mi East 9.2 mph - 0.00 in   Overcast
2:30 AM 24.8 °F 14.6 °F 21.2 °F 86% 29.95 in 4.0 mi East 10.4 mph 16.1 mph 0.00 in   Overcast
2:54 AM 25.0 °F 17.1 °F 21.9 °F 88% 29.98 in 4.0 mi Variable 6.9 mph - 0.00 in   Overcast
3:54 AM 26.1 °F 18.4 °F 21.0 °F 81% 29.94 in 9.0 mi East 6.9 mph 16.1 mph 0.01 in   Overcast
4:41 AM 26.6 °F 16.2 °F 21.2 °F 80% 29.88 in 9.0 mi ENE 11.5 mph 18.4 mph N/A   Overcast
4:54 AM 27.0 °F 17.3 °F 21.0 °F 78% 29.91 in 10.0 mi ENE 10.4 mph 17.3 mph N/A   Overcast
5:54 AM 27.0 °F 18.0 °F 21.9 °F 81% 29.91 in 7.0 mi East 9.2 mph 17.3 mph N/A   Overcast
6:54 AM 27.0 °F 18.0 °F 21.9 °F 81% 29.87 in 6.0 mi ENE 9.2 mph - 0.00 in   Overcast
8:54 AM 28.0 °F 19.3 °F 23.0 °F 81% 29.84 in 7.0 mi ENE 9.2 mph 17.3 mph 0.00 in   Overcast
9:54 AM 28.9 °F 19.2 °F 24.1 °F 82% 29.81 in 10.0 mi ENE 11.5 mph 20.7 mph 0.00 in   Overcast
10:54 AM 30.9 °F 20.7 °F 25.0 °F 79% 29.77 in 10.0 mi ENE 13.8 mph 17.3 mph N/A   Overcast
11:22 AM 30.2 °F 26.7 °F 24.8 °F 80% 29.78 in 10.0 mi WNW 3.5 mph - N/A   Overcast
11:31 AM 30.2 °F 24.3 °F 26.6 °F 86% 29.79 in 1.8 mi NW 5.8 mph - 0.04 in Snow Light Snow
11:48 AM 30.2 °F 23.4 °F 26.6 °F 86% 29.76 in 2.0 mi ENE 6.9 mph - 0.07 in   Overcast
11:54 AM 30.9 °F 25.2 °F 27.0 °F 85% 29.80 in 1.5 mi NE 5.8 mph - 0.09 in Snow Light Snow
12:02 PM 30.2 °F 25.4 °F 26.6 °F 86% 29.76 in 0.8 mi NE 4.6 mph - 0.01 in Snow Light Snow
12:12 PM 30.2 °F 22.6 °F 26.6 °F 86% 29.74 in 1.5 mi NE 8.1 mph - 0.02 in Snow Light Snow
12:26 PM 30.2 °F 21.9 °F 28.4 °F 93% 29.73 in 0.8 mi NE 9.2 mph - 0.03 in Snow Light Snow
12:39 PM 30.2 °F 24.3 °F 28.4 °F 93% 29.74 in 0.8 mi NE 5.8 mph - 0.04 in Snow Light Snow
12:54 PM 30.0 °F 22.4 °F 28.0 °F 92% 29.76 in 0.8 mi ENE 8.1 mph - 0.05 in Snow Light Snow
1:09 PM 30.2 °F 21.3 °F 28.4 °F 93% 29.71 in 0.8 mi NE 10.4 mph - 0.00 in Snow Light Snow
1:28 PM 30.2 °F 21.9 °F 28.4 °F 93% 29.72 in 1.2 mi NE 9.2 mph - 0.01 in Snow Light Snow
1:37 PM 30.2 °F 21.9 °F 28.4 °F 93% 29.70 in 0.5 mi ENE 9.2 mph 17.3 mph 0.01 in Fog , Snow Snow
1:54 PM 30.9 °F 21.7 °F 28.9 °F 92% 29.70 in 0.5 mi NE 11.5 mph 20.7 mph 0.02 in Fog , Snow Snow
2:09 PM 30.2 °F 20.2 °F 28.4 °F 93% 29.66 in 1.0 mi NE 12.7 mph 18.4 mph 0.01 in Snow Light Snow
2:16 PM 32.0 °F 22.1 °F 28.4 °F 87% 29.66 in 2.0 mi NE 13.8 mph 18.4 mph 0.01 in Snow Light Snow
2:23 PM 32.0 °F 23.6 °F 28.4 °F 87% 29.66 in 5.0 mi ENE 10.4 mph - 0.01 in Snow Light Snow
2:38 PM 32.0 °F 24.2 °F 28.4 °F 87% 29.66 in 10.0 mi ENE 9.2 mph - 0.01 in   Overcast
2:54 PM 33.1 °F 26.1 °F 28.0 °F 82% 29.69 in 9.0 mi ENE 8.1 mph 17.3 mph 0.01 in   Overcast
3:27 PM 33.8 °F 26.4 °F 28.4 °F 81% 29.63 in 10.0 mi ENE 9.2 mph 17.3 mph N/A   Overcast
3:36 PM 33.8 °F 25.3 °F 28.4 °F 81% 29.63 in 10.0 mi NE 11.5 mph - N/A   Overcast
3:54 PM 33.1 °F 24.9 °F 27.0 °F 78% 29.67 in 10.0 mi NE 10.4 mph - N/A   Overcast
4:29 PM 32.0 °F 27.5 °F 28.4 °F 87% 29.65 in 1.8 mi NE 4.6 mph - 0.00 in Snow Light Snow
4:50 PM 32.0 °F 28.7 °F 28.4 °F 87% 29.65 in 0.8 mi NNE 3.5 mph - 0.00 in Snow Light Snow
4:54 PM 32.0 °F 27.5 °F 28.9 °F 88% 29.69 in 0.8 mi North 4.6 mph - 0.00 in Snow Light Snow
5:03 PM 32.0 °F 28.7 °F 28.4 °F 87% 29.65 in 1.0 mi NE 3.5 mph - 0.01 in Snow Light Snow
5:13 PM 32.0 °F - 28.4 °F 87% 29.65 in 0.8 mi Calm Calm - 0.01 in Snow Light Snow
5:26 PM 32.0 °F - 30.2 °F 93% 29.65 in 1.0 mi Calm Calm - 0.01 in Snow Light Snow
5:48 PM 30.2 °F 26.7 °F 28.4 °F 93% 29.65 in 2.5 mi North 3.5 mph - 0.01 in Snow Light Snow
5:54 PM 30.9 °F - 28.9 °F 92% 29.69 in 4.0 mi Calm Calm - 0.01 in   Overcast
6:50 PM 30.2 °F - 30.2 °F 100% 29.65 in 2.5 mi Calm Calm - 0.01 in Snow Light Snow
6:54 PM 30.9 °F 27.5 °F 28.9 °F 92% 29.69 in 2.0 mi WSW 3.5 mph - 0.01 in Snow Light Snow
7:06 PM 30.2 °F - 28.4 °F 93% 29.65 in 1.8 mi Calm Calm - 0.00 in Snow Light Snow
7:16 PM 30.2 °F - 28.4 °F 93% 29.65 in 2.0 mi Calm Calm - 0.00 in Snow Light Snow
7:26 PM 30.2 °F - 28.4 °F 93% 29.65 in 5.0 mi Calm Calm - 0.00 in Snow Light Snow
7:54 PM 28.9 °F - 28.0 °F 96% 29.69 in 10.0 mi Calm Calm - 0.00 in   Mostly Cloudy
8:50 PM 28.4 °F 23.3 °F 26.6 °F 93% 29.68 in 2.5 mi West 4.6 mph - 0.00 in Snow Light Snow
8:54 PM 28.9 °F 21.1 °F 27.0 °F 92% 29.72 in 1.2 mi West 8.1 mph - 0.00 in Snow Light Snow
8:58 PM 28.4 °F 20.4 °F 28.4 °F 100% 29.69 in 0.8 mi WSW 8.1 mph - 0.01 in Snow Light Snow
9:22 PM 30.2 °F 23.4 °F 28.4 °F 93% 29.69 in 1.8 mi WSW 6.9 mph - 0.02 in Snow Light Snow
9:31 PM 30.2 °F 21.9 °F 28.4 °F 93% 29.69 in 0.8 mi WSW 9.2 mph - 0.03 in Snow Light Snow
9:40 PM 30.2 °F 21.3 °F 28.4 °F 93% 29.70 in 1.0 mi West 10.4 mph - 0.03 in Snow Light Snow
9:50 PM 28.4 °F 17.5 °F 26.6 °F 93% 29.71 in 0.5 mi NW 13.8 mph 23.0 mph 0.03 in Fog , Snow Snow
9:54 PM 28.9 °F 18.6 °F 27.0 °F 92% 29.75 in 0.5 mi NW 12.7 mph 23.0 mph 0.04 in Fog , Snow Snow
10:18 PM 26.6 °F 14.7 °F 23.0 °F 86% 29.72 in 2.0 mi WNW 15.0 mph 27.6 mph 0.00 in Snow Light Snow
10:22 PM 26.6 °F 15.7 °F 23.0 °F 86% 29.72 in 3.0 mi WNW 12.7 mph 25.3 mph 0.00 in Snow Light Snow
10:32 PM 28.4 °F 14.7 °F 23.0 °F 80% 29.72 in 6.0 mi WNW 21.9 mph 28.8 mph 0.00 in   Haze
10:52 PM 26.6 °F 15.7 °F 21.2 °F 80% 29.71 in 4.0 mi WNW 12.7 mph 33.4 mph 0.00 in Snow Light Snow
10:54 PM 27.0 °F 16.1 °F 21.9 °F 81% 29.75 in 5.0 mi WNW 12.7 mph 33.4 mph 0.00 in Snow Light Snow
11:43 PM 26.6 °F 17.5 °F 21.2 °F 80% 29.71 in 10.0 mi NW 9.2 mph 17.3 mph 0.00 in   Overcast
11:54 PM 26.1 °F 16.8 °F 19.9 °F 78% 29.75 in 10.0 mi NNW 9.2 mph - 0.00 in   Overcast